#timestamp,LO_Frequency,Hit 
1502881215.2,286046995.8,N
1502881235.0,286046994.0,P
1502881235.9,286046994.0,P
1502881255.8,286046997.7,N
1502881275.6,286046996.9,N
1502881295.4,286047000.3,N
1502881315.3,286046998.4,N
1502881335.1,286046996.7,N
1502881336.0,286046996.7,N
1502881355.8,286046998.6,N
1502881375.7,286046998.7,N
1502881395.5,286046999.8,N
1502881415.3,286046999.9,N
1502881435.1,286047000.5,N
1502881455.9,286047004.4,N
1502881475.7,286047003.5,N
1502881495.5,286047003.5,N
1502881515.4,286047002.5,N
1502881535.2,286046999.9,N
1502881555.0,286047001.0,N
1502881555.9,286047001.0,N
1502881575.8,286046999.9,N
1502881595.6,286047001.5,N
1502881615.4,286047001.2,N
1502881635.3,286046998.1,N
1502881655.1,286047002.8,N
1502881656.0,286047002.8,N
1502881675.8,286047004.1,N
1502881695.7,286047003.6,N
1502881715.5,286047003.7,N
1502881735.3,286047003.9,N
1502881755.1,286047003.6,N
1502881775.9,286047003.7,N
1502881795.7,286047002.2,N
1502881815.5,286047001.0,N
1502881835.4,286047002.4,N
1502881855.2,286047001.9,N
1502881875.0,286047001.2,N
1502881875.9,286047001.2,N
1502881895.8,286047002.4,N
1502881915.6,286047001.8,N
1502881935.4,286047003.6,N
1502881955.3,286047005.8,P
1502881975.1,286047004.0,N
1502881976.0,286047004.0,N
1502881995.8,286047003.0,N
1502882015.7,286046999.7,N
1502882035.5,286047001.0,N
1502882055.3,286047002.8,N
1502882075.2,286047000.2,N
1502882095.9,286047002.2,N
1502882115.7,286047002.1,N
1502882135.6,286047004.0,N
1502882155.4,286047003.0,N
1502882175.2,286047004.3,N
1502882195.0,286046999.8,N
1502882195.9,286046999.8,N
1502882215.2,286046998.4,N
1502882235.0,286047000.1,N
1502882235.9,286047000.1,N
1502882255.8,286047002.2,N
1502882275.6,286047001.7,N
1502882295.4,286047004.3,N
1502882315.3,286047004.0,N
1502882335.1,286047001.6,N
1502882336.0,286047001.6,N
1502882355.8,286047000.7,N
1502882375.7,286046998.9,N
1502882395.5,286046995.4,N
1502882415.3,286046995.5,N
1502882435.1,286046995.7,N
1502882455.9,286046993.7,N
1502882475.7,286046992.0,N
1502882495.5,286046993.6,N
1502882515.4,286046990.6,N
1502882535.2,286046990.4,N
1502882555.0,286046990.4,N
1502882555.9,286046990.4,N
1502882575.8,286046993.0,N
1502882595.6,286046996.0,N
1502882615.4,286046994.6,N
1502882635.3,286046993.4,N
1502882655.1,286046993.7,N
1502882656.0,286046993.7,N
1502882675.8,286046994.3,N
1502882695.7,286046994.0,N
1502882715.5,286046995.9,N
1502882735.3,286046995.8,N
1502882755.1,286046996.1,N
1502882775.9,286046994.0,N
1502882795.7,286046992.2,N
1502882815.5,286046992.6,N
1502882835.4,286046998.0,N
1502882855.2,286046999.2,N
1502882875.0,286046995.1,N
1502882875.9,286046995.1,N
1502882895.8,286046992.0,P
1502882915.6,286046998.8,N
1502882935.4,286046998.2,N
1502882955.3,286046999.6,N
1502882975.1,286046999.1,N
1502882995.8,286047000.8,N
1502883015.7,286046998.7,N
1502883035.5,286046998.9,N
1502883055.3,286046998.2,N
1502883075.2,286047000.5,N
1502883095.9,286046996.6,N
1502883115.7,286046996.5,N
1502883135.6,286046999.4,N
1502883155.4,286047000.1,N
1502883175.2,286047004.4,N
1502883195.0,286047003.5,N
1502883196.0,286047003.5,N
1502883215.8,286047002.0,N
1502883235.6,286047001.4,N
1502883255.4,286047002.0,N
1502883275.3,286047004.4,N
1502883295.1,286047002.1,N
1502883315.8,286046999.7,N
1502883335.7,286046998.5,N
1502883355.5,286047000.5,N
1502883375.3,286047001.6,N
1502883395.2,286047000.2,N
1502883415.9,286046999.0,N
1502883435.7,286046999.1,N
1502883455.6,286046998.3,N
1502883475.4,286047000.6,N
1502883495.2,286046999.3,N
1502883515.1,286046997.6,N
1502883516.0,286046997.6,N
1502883535.8,286046995.0,N
1502883555.6,286046998.0,N
1502883575.5,286046998.2,N
1502883595.3,286047001.9,N
1502883615.1,286047002.0,N
1502883635.8,286047001.1,N
1502883655.7,286046996.7,N
1502883675.5,286046995.5,N
1502883695.3,286046997.6,N
1502883715.2,286046997.2,N
1502883735.9,286046999.6,N
1502883755.7,286046994.9,N
1502883775.6,286046999.5,N
1502883795.4,286047000.6,N
1502883815.2,286046998.1,N
1502883835.1,286046997.8,N
1502883836.0,286046997.8,N
1502883855.8,286046997.5,N
1502883875.6,286046995.0,N
1502883895.5,286046997.2,N
1502883915.3,286046998.0,N
1502883935.1,286046999.5,N
1502883955.8,286046997.6,N
1502883975.7,286046996.5,N
1502883995.5,286047000.8,N
1502884015.3,286046998.5,N
1502884035.2,286046998.2,N
1502884055.0,286047002.0,N
1502884055.9,286047002.0,N
1502884075.7,286047002.7,N
1502884095.6,286047002.8,N
1502884115.4,286046997.5,N
1502884135.2,286046995.3,N
1502884155.1,286046997.6,N
1502884156.0,286046997.6,N
1502884175.8,286046995.0,N
1502884195.6,286046995.9,N
1502884215.5,286046994.3,N
1502884235.3,286046994.5,N
1502884255.1,286046991.7,P
1502884275.9,286046997.6,N
1502884295.7,286046998.9,N
1502884315.5,286047002.3,N
1502884335.4,286047002.3,N
1502884355.2,286047000.5,N
1502884375.0,286046996.5,N
1502884375.9,286046996.5,N
1502884395.8,286046997.9,N
1502884415.6,286046996.7,N
1502884435.4,286046998.9,N
1502884455.3,286047001.2,N
1502884475.1,286046998.3,N
1502884476.0,286046998.3,N
1502884495.8,286046999.9,N
1502884515.6,286047002.2,N
1502884535.5,286047001.6,N
1502884555.3,286047003.7,N
1502884575.1,286047003.4,N
1502884595.9,286047006.0,N
1502884615.7,286047001.3,N
1502884635.5,286047001.9,N
1502884655.4,286047001.5,N
1502884675.2,286047002.5,N
1502884695.0,286047001.9,N
1502884695.9,286047001.9,N
1502884715.8,286047002.7,N
1502884735.6,286047002.5,N
1502884755.4,286047000.1,N
1502884775.2,286046999.8,N
1502884795.1,286046998.3,N
1502884796.0,286046998.3,N
